{"data":{"norad_id":63764,"intl_designator":"2025-089P","name":"STARLINK-33760","alt_names":[],"object_type":"PAYLOAD","status":"ACTIVE","operator":null,"country":"US","launch_date":"2025-04-29","launch_site_code":"AFETR","launch_vehicle":null,"mission":null,"orbit_class":"UNKNOWN","rcs_meters":null,"size_class":null,"mass_kg":null,"dimensions":null,"purposes":["comms"],"wikipedia_slug":null,"has_3d_model":false,"image_url":null,"decayed_at":null,"tle_current":{"epoch":"2026-05-24T17:13:22.913184Z","epoch_age_seconds":99746,"freshness":"FRESH","line1":"1 63764U 25089P   26144.71762631  .00013052  00000+0  48281-3 0  9996","line2":"2 63764  43.0032 335.9911 0001522 253.2170 106.8514 15.27591986 60588","mean_motion":15.27591986,"eccentricity":0.0001522,"inclination_deg":43.0032,"raan_deg":335.9911,"arg_perigee_deg":253.217,"mean_anomaly_deg":106.8514,"bstar":0.00048281,"rev_number":6058,"period_min":94.266009065067,"perigee_km":481.96893881705,"apogee_km":484.05747293972,"semimajor_km":6861.1502058784,"source":"CELESTRAK","updated_at":"2026-05-25T13:38:20.105844Z"}}}